Weather History for Clinton, AR

Change the Weather History Date:

Saturday, October 26, 2013

  Actual Average (KFLP) Record (KFLP)
Temperature  
Mean Temperature 50 °F -  
Max Temperature 66 °F 68 °F 82 °F (2004)
Min Temperature 33 °F 48 °F 28 °F (2005)
Degree Days  
Heating Degree Days 16    
Moisture  
Dew Point 42 °F    
Average Humidity 78    
Maximum Humidity 100    
Minimum Humidity 49    
Precipitation  
Precipitation 0.00 in - - ()
Sea Level Pressure  
Sea Level Pressure 30.20 in    
Wind  
Wind Speed 1 mph (SW)    
Max Wind Speed 13 mph    
Max Gust Speed 16 mph    
Visibility 8 miles    
Events      
Averages and records for this station are not official NWS values.
T = Trace of Precipitation, MM = Missing Value Source: NWS Daily Summary

Daily Weather History Graph

Daily Weather History Graph

Search for Another Location

Airport:

Trip Planner

Search our weather history database for the weather conditions in past years. The results will help you decide how hot, cold, wet, or windy it might be!

Date:

Astronomy

Oct. 26, 2013 Rise Set
Actual Time 7:26 AM CDT 6:20 PM CDT
Civil Twilight 7:00 AM CDT 6:46 PM CDT
Nautical Twilight 6:30 AM CDT 7:16 PM CDT
Astronomical Twilight 6:00 AM CDT 7:46 PM CDT
Moon No Moon Rise 1:40 PM CDT (10/26)
Length of Visible Light 11h 46m
Length of Day
10h 54m
Waning Gibbous, 53% of the Moon is Illuminated
Oct 26
Waning Gibbous
Oct 26
Last Quarter
Nov 3
New
Nov 9
First Quarter
Nov 17
Full

Hourly Weather History & Observations

Time (CDT) Temp. Dew Point Humidity Pressure Visibility Wind Dir Wind Speed Gust Speed Precip Events Conditions
12:15 AM 35.6 °F 33.8 °F 93% 30.31 in 3.0 mi Calm Calm - N/A   Clear
12:35 AM 35.6 °F 33.8 °F 93% 30.31 in 10.0 mi Calm Calm - N/A   Clear
12:55 AM 35.6 °F 33.8 °F 93% 30.30 in 9.0 mi Calm Calm - N/A   Clear
1:15 AM 35.6 °F 33.8 °F 93% 30.29 in 8.0 mi Calm Calm - N/A   Clear
1:35 AM 35.6 °F 33.8 °F 93% 30.29 in 4.0 mi Calm Calm - N/A   Clear
1:55 AM 35.6 °F 33.8 °F 93% 30.29 in 3.0 mi Calm Calm - N/A   Clear
2:15 AM 35.6 °F 33.8 °F 93% 30.29 in 5.0 mi Calm Calm - N/A   Clear
2:35 AM 35.6 °F 33.8 °F 93% 30.29 in 6.0 mi Calm Calm - N/A   Clear
2:55 AM 35.6 °F 35.6 °F 100% 30.28 in 3.0 mi Calm Calm - N/A   Clear
3:15 AM 35.6 °F 35.6 °F 100% 30.28 in 3.0 mi Calm Calm - N/A   Clear
3:35 AM 35.6 °F 33.8 °F 93% 30.27 in 2.0 mi Calm Calm - N/A   Clear
3:55 AM 35.6 °F 33.8 °F 93% 30.27 in 10.0 mi Calm Calm - N/A   Clear
4:15 AM 35.6 °F 33.8 °F 93% 30.27 in 8.0 mi Calm Calm - N/A   Clear
4:35 AM 35.6 °F 33.8 °F 93% 30.27 in 6.0 mi Calm Calm - N/A   Clear
4:55 AM 35.6 °F 33.8 °F 93% 30.27 in 6.0 mi Calm Calm - N/A   Clear
5:15 AM 35.6 °F 33.8 °F 93% 30.26 in 9.0 mi Calm Calm - N/A   Clear
5:35 AM 35.6 °F 33.8 °F 93% 30.26 in 5.0 mi Calm Calm - N/A   Clear
5:55 AM 35.6 °F 33.8 °F 93% 30.26 in 7.0 mi Calm Calm - N/A   Clear
6:15 AM 35.6 °F 33.8 °F 93% 30.26 in 3.0 mi Calm Calm - N/A   Clear
6:35 AM 35.6 °F 33.8 °F 93% 30.26 in 7.0 mi Calm Calm - N/A   Clear
6:55 AM 35.6 °F 33.8 °F 93% 30.26 in 2.0 mi Calm Calm - N/A   Clear
7:15 AM 33.8 °F 33.8 °F 100% 30.26 in 3.0 mi Calm Calm - N/A   Clear
7:35 AM 33.8 °F 33.8 °F 100% 30.26 in 3.0 mi Calm Calm - N/A   Clear
7:55 AM 35.6 °F 33.8 °F 93% 30.26 in 7.0 mi Calm Calm - N/A   Clear
8:15 AM 37.4 °F 35.6 °F 93% 30.26 in 5.0 mi Calm Calm - N/A   Clear
8:35 AM 39.2 °F 37.4 °F 93% 30.26 in 4.0 mi Calm Calm - N/A   Clear
8:55 AM 42.8 °F 37.4 °F 81% 30.26 in 8.0 mi Calm Calm - N/A   Clear
9:15 AM 44.6 °F 35.6 °F 71% 30.26 in 8.0 mi Calm Calm - N/A   Clear
9:35 AM 46.4 °F 37.4 °F 71% 30.25 in 9.0 mi Calm Calm - N/A   Scattered Clouds
9:55 AM 48.2 °F 39.2 °F 71% 30.24 in 10.0 mi Calm Calm - N/A   Scattered Clouds
10:15 AM 51.8 °F 37.4 °F 58% 30.24 in 9.0 mi Calm Calm - N/A   Clear
10:35 AM 53.6 °F 39.2 °F 58% 30.24 in 10.0 mi West 3.5 mph - N/A   Scattered Clouds
10:55 AM 55.4 °F 39.2 °F 54% 30.23 in 10.0 mi SW 6.9 mph - N/A   Scattered Clouds
11:15 AM 57.2 °F 41.0 °F 55% 30.22 in 10.0 mi SW 4.6 mph - N/A   Partly Cloudy
11:35 AM 57.2 °F 41.0 °F 55% 30.22 in 10.0 mi WSW 3.5 mph - N/A   Clear
11:55 AM 60.8 °F 42.8 °F 52% 30.21 in 10.0 mi SSW 5.8 mph - N/A   Clear
12:15 PM 62.6 °F 44.6 °F 52% 30.20 in 10.0 mi WSW 6.9 mph - N/A   Clear
12:35 PM 62.6 °F 44.6 °F 52% 30.19 in 10.0 mi SSW 5.8 mph - N/A   Clear
12:55 PM 64.4 °F 44.6 °F 49% 30.18 in 10.0 mi SW 6.9 mph - N/A   Clear
1:15 PM 64.4 °F 46.4 °F 52% 30.17 in 10.0 mi South 6.9 mph - N/A   Scattered Clouds
1:35 PM 64.4 °F 46.4 °F 52% 30.16 in 10.0 mi WSW 8.1 mph 16.1 mph N/A   Scattered Clouds
1:55 PM 66.2 °F 46.4 °F 49% 30.16 in 10.0 mi WSW 10.4 mph - N/A   Partly Cloudy
2:15 PM 66.2 °F 46.4 °F 49% 30.15 in 10.0 mi SSW 12.7 mph - N/A   Partly Cloudy
2:35 PM 66.2 °F 46.4 °F 49% 30.14 in 10.0 mi WSW 8.1 mph - N/A   Partly Cloudy
2:55 PM 66.2 °F 46.4 °F 49% 30.13 in 10.0 mi WSW 6.9 mph - N/A   Clear
3:15 PM 66.2 °F 48.2 °F 52% 30.13 in 10.0 mi SSW 6.9 mph - N/A   Clear
3:35 PM 66.2 °F 48.2 °F 52% 30.13 in 10.0 mi South 10.4 mph - N/A   Clear
3:55 PM 64.4 °F 48.2 °F 56% 30.13 in 10.0 mi SSW 9.2 mph - N/A   Clear
4:15 PM 62.6 °F 48.2 °F 59% 30.12 in 10.0 mi South 5.8 mph - N/A   Partly Cloudy
4:35 PM 64.4 °F 48.2 °F 56% 30.12 in 10.0 mi SSW 8.1 mph - N/A   Clear
4:55 PM 62.6 °F 48.2 °F 59% 30.12 in 10.0 mi SW 6.9 mph - N/A   Clear
5:15 PM 60.8 °F 48.2 °F 63% 30.12 in 10.0 mi SW 5.8 mph - N/A   Clear
5:35 PM 60.8 °F 48.2 °F 63% 30.12 in 10.0 mi WSW 4.6 mph - N/A   Clear
5:55 PM 60.8 °F 50.0 °F 68% 30.12 in 10.0 mi South 3.5 mph - N/A   Partly Cloudy
6:15 PM 59.0 °F 48.2 °F 67% 30.12 in 10.0 mi Calm Calm - N/A   Scattered Clouds
6:35 PM 57.2 °F 50.0 °F 77% 30.13 in 10.0 mi Calm Calm - N/A   Scattered Clouds
6:55 PM 57.2 °F 50.0 °F 77% 30.13 in 10.0 mi Calm Calm - N/A   Scattered Clouds
7:15 PM 57.2 °F 50.0 °F 77% 30.13 in 10.0 mi Calm Calm - N/A   Partly Cloudy
7:35 PM 55.4 °F 50.0 °F 82% 30.13 in 10.0 mi Calm Calm - N/A   Scattered Clouds
7:55 PM 53.6 °F 51.8 °F 94% 30.13 in 10.0 mi NW 3.5 mph - N/A   Partly Cloudy
8:15 PM 53.6 °F 50.0 °F 88% 30.12 in 10.0 mi Calm Calm - N/A   Partly Cloudy
8:35 PM 53.6 °F 50.0 °F 88% 30.12 in 10.0 mi South 3.5 mph - N/A   Partly Cloudy
8:55 PM 51.8 °F 50.0 °F 94% 30.12 in 10.0 mi Calm Calm - N/A   Partly Cloudy
9:15 PM 51.8 °F 50.0 °F 94% 30.12 in 10.0 mi Calm Calm - N/A   Scattered Clouds
9:35 PM 51.8 °F 48.2 °F 88% 30.13 in 10.0 mi Calm Calm - N/A   Mostly Cloudy
9:55 PM 51.8 °F 48.2 °F 88% 30.13 in 10.0 mi Calm Calm - N/A   Mostly Cloudy
10:15 PM 51.8 °F 50.0 °F 94% 30.14 in 10.0 mi Calm Calm - N/A   Mostly Cloudy
10:35 PM 51.8 °F 50.0 °F 94% 30.14 in 10.0 mi Calm Calm - N/A   Overcast
10:55 PM 51.8 °F 50.0 °F 94% 30.13 in 10.0 mi Calm Calm - N/A   Overcast
11:15 PM 51.8 °F 50.0 °F 94% 30.13 in 10.0 mi Calm Calm - N/A   Overcast
11:35 PM 51.8 °F 50.0 °F 94% 30.12 in 9.0 mi Calm Calm - N/A   Overcast
11:55 PM 51.8 °F 50.0 °F 94% 30.12 in 9.0 mi Calm Calm - N/A   Mostly Cloudy